CAPE
39 30 188 119 289 742 1135 1103 1203 1115 971 1029 972 743 968 1190 1188 1133 1415 1393 1328 1210 1143 730 758 909 725 696 796 968 749 921 1391 1236 1427 1463 1250 1176 985 904 1050 994 1292
76 91 145 104 96 219 509 789 950 779 1038 979 1001 983 822 760 990 1036 1173 1231 1167 1205 1171 1074 559 831 724 817 729 824 920 1040 1160 1004 904 1092 1080 1326 1004 1074 618 627 855
96 171 163 98 143 122 77 288 470 550 763 873 922 885 821 793 750 645 597 645 723 689 932 1089 418 648 648 816 919 978 802 912 1006 720 771 743 905 1260 1087 1438 1434 1134 699
165 145 108 186 173 118 102 79 65 313 445 663 890 944 823 786 800 807 782 753 710 866 964 1093 807 671 447 474 855 864 838 922 1088 592 401 776 767 1156 1090 1127 1246 705 1076
122 191 91 224 252 161 122 85 86 80 216 475 495 845 965 915 876 857 840 848 815 783 885 849 923 726 573 445 567 734 695 832 690 569 375 647 831 1133 1263 1221 1245 1176 1658
110 221 178 170 214 209 191 113 103 98 75 105 575 570 728 1003 988 912 1009 1199 1014 1048 862 930 847 501 584 539 569 755 773 735 333 487 527 782 915 1288 1350 1416 1560 1516 1780
104 133 182 180 218 197 197 162 141 153 129 101 116 518 667 759 867 985 1048 898 830 829 671 714 661 533 462 407 466 820 1116 614 254 254 280 786 709 1198 1447 1432 1391 1641 1712
6 137 204 119 109 164 208 183 208 209 185 132 116 164 403 549 628 940 1009 1097 834 706 627 537 701 658 417 445 586 523 928 790 221 215 242 264 1029 1000 1461 1358 1460 1604 1548
0 3 1 206 191 86 79 113 153 217 209 206 207 127 141 354 487 506 659 708 696 672 483 574 641 704 684 727 628 649 466 579 366 254 237 201 1049 1139 1247 1470 1507 1435 1472
0 0 0 4 5 31 127 90 109 84 98 156 190 193 102 147 214 412 420 403 398 355 212 241 495 527 650 600 497 391 296 309 399 360 373 365 1078 986 1153 1374 1435 1426 1328
0 0 0 0 2 12 26 11 14 5 24 135 165 176 126 178 291 327 298 242 224 235 207 90 190 465 369 356 310 212 198 250 249 283 340 756 728 813 1065 1253 1561 1554 1415
0 0 0 0 0 0 1 2 1 4 17 59 35 164 177 243 226 190 185 190 176 203 146 116 0 111 135 161 294 92 175 203 259 394 457 461 677 881 988 1366 884 1276 1534
0 0 0 0 0 0 0 0 1 4 3 6 3 42 125 140 231 161 282 577 456 274 282 249 204 0 119 458 442 241 238 355 372 282 413 324 342 768 941 1093 801 825 1090
0 0 0 0 0 0 0 0 0 0 5 10 12 20 36 78 84 85 113 262 325 245 317 294 229 168 145 228 182 178 184 412 358 450 346 178 175 291 780 932 891 646 1051
0 0 0 0 0 0 0 0 0 0 0 1 11 12 51 60 69 81 76 48 342 84 62 205 177 199 224 265 190 85 64 105 216 225 321 136 71 119 279 514 525 544 890
0 0 0 0 0 0 0 0 0 0 0 0 0 1 20 45 25 31 8 12 33 142 3 56 152 181 189 164 103 90 102 95 104 104 75 95 96 128 357 385 248 181 185
0 0 0 0 0 0 0 0 0 0 0 0 0 1 0 1 11 24 18 11 19 124 67 66 60 109 168 150 121 13 4 5 2 1 26 47 98 115 184 191 132 226 512
0 0 0 0 0 0 0 0 0 0 0 0 0 0 0 0 5 5 3 3 19 36 68 32 72 86 110 36 7 6 5 0 3 0 0 0 201 218 115 160 174 254 307
0 0 0 0 0 0 0 0 0 0 0 0 0 0 0 0 0 7 0 45 11 4 29 23 11 51 17 9 6 5 6 6 2 0 0 3 21 141 194 58 32 50 35
0 0 0 0 0 0 0 0 0 0 0 0 0 0 0 0 0 0 0 10 3 15 43 7 10 20 20 24 5 4 2 7 10 2 0 1 77 87 86 50 13 22 8
0 0 0 0 0 0 0 0 0 0 0 0 0 0 0 0 0 0 5 3 42 11 27 17 7 1 2 12 13 8 6 3 0 2 3 0 1 47 99 37 7 31 12
0 0 0 0 0 0 0 0 0 0 0 0 0 0 0 0 0 0 0 33 23 4 36 49 25 17 7 13 20 11 8 0 0 3 0 0 4 37 75 21 54 33 20
0 0 0 0 0 0 0 0 0 0 0 0 0 0 0 0 0 0 0 0 12 16 23 30 9 19 3 5 5 22 9 7 0 0 2 8 8 8 44 79 35 13 7
0 0 0 0 0 0 0 0 0 0 0 0 0 0 0 0 0 0 0 0 36 29 12 10 9 19 23 7 4 31 10 4 8 1 1 7 0 13 60 43 45 24 15
0 0 0 0 0 0 0 0 0 0 0 0 0 0 0 0 0 0 0 0 0 40 27 5 3 0 14 2 5 0 16 4 10 17 9 11 3 4 33 79 51 2 4
0 0 0 0 0 0 0 0 0 0 0 0 0 0 0 0 0 0 0 0 0 3 10 17 4 0 15 2 17 11 2 6 15 2 0 3 15 8 1 7 19 29 2
CIN
-33 -41 -52 -83 -49 -14 -8 -8 -8 -1 -1 -3 -12 -25 -18 -16 -8 -3 0 0 0 -1 0 -2 -2 0 -2 -1 0 0 -3 -1 0 -2 -1 0 0 0 0 -5 -12 0 0
-7 -2 -89 -1 0 -75 -9 -16 -4 -5 -2 -1 0 -4 -9 -12 -7 -14 -1 0 0 0 0 0 -4 -2 0 0 -5 -3 -1 -1 -2 -6 -8 -6 -2 0 -2 -8 -8 -3 0
-5 -45 -59 -3 -1 -2 -8 -34 -16 -7 -2 -2 -1 -1 -4 -8 -8 -6 -4 -2 -1 -2 0 -2 -6 -4 -5 -2 -2 -3 -3 -2 -4 -15 -23 -2 -1 0 -2 -2 -5 0 0
0 0 -10 -54 -3 -7 -34 -39 -27 -17 -4 -2 -2 -1 -5 -5 -6 -4 -1 -1 0 0 0 -2 -2 -3 -12 -10 -2 -3 -3 -3 -3 -23 -26 -6 -1 -3 -1 -2 0 -14 0
0 -4 -16 -4 -3 -3 -8 -37 -62 -54 -14 0 -3 -2 -3 -1 0 0 -1 -2 -5 -5 -3 -3 -2 -3 -6 -14 -9 -1 -4 -6 -13 -26 -14 -11 -1 -2 0 0 0 -1 0
-7 -7 0 0 -14 -3 0 -12 -36 -44 -45 -23 0 -2 -7 -5 -4 -1 0 0 -2 -1 -1 -3 -3 -7 -8 -13 -12 -4 -3 -6 -40 -9 -9 -13 -10 -16 0 0 0 -1 0
-21 -13 -1 -1 -1 -1 -1 -6 -13 -15 -30 -34 -31 0 -1 -3 -2 -2 -1 -3 -4 -3 -3 -5 -6 -5 -8 -14 -13 -3 -1 -8 -13 0 -1 -16 -10 -4 -3 -1 -2 -1 -1
-10 -10 0 -10 -16 -5 -2 -6 -4 -7 -11 -28 -20 -8 0 0 -4 -2 -2 -3 -2 -3 -4 -4 -3 -3 -7 -8 -6 -16 -4 -5 -11 -8 -1 -1 -7 -9 -1 -1 -2 -2 -3
0 0 0 -3 -1 -16 -22 -15 -10 -22 -14 -5 -1 -12 -9 -9 -8 -8 -7 -11 -8 -1 -4 -4 -3 -3 -2 -3 -4 -7 -19 -13 -10 -1 -1 -2 -26 -7 -2 -2 -1 -7 -7
0 0 0 0 0 -22 -4 -14 -11 -19 -24 -16 -4 0 -22 -8 -38 -20 -21 -14 -12 -9 -11 -11 -4 -4 -2 -3 -7 -11 -21 -24 -6 -7 -13 -25 -13 -7 -4 -1 -2 -4 -10
0 0 0 0 0 -23 -13 -21 -28 0 -22 -11 -10 -1 -15 -8 0 -5 -3 -13 -31 -21 -16 -19 -14 -6 -10 -9 -18 -23 -22 -6 0 -6 -4 -22 -25 -7 -3 -4 -2 -2 -3
0 0 0 0 0 -1 0 0 0 0 -11 -10 -24 -2 -1 0 0 -2 -9 -26 -26 -25 -29 -26 0 -32 -30 -3 -12 -38 -14 -2 -1 -3 -2 -32 -22 -8 -1 -2 -15 -5 -1
0 0 0 0 0 0 0 0 -2 0 0 0 -9 -18 -1 -1 0 0 -6 -3 -2 -1 0 -6 -1 0 -2 -2 -6 -6 -4 -7 -4 -1 -3 -7 -18 -7 0 -3 -12 -15 -3
0 0 0 0 0 0 0 0 0 0 0 0 -2 -2 -11 -2 -1 -1 0 -3 -1 -5 0 0 0 -9 -1 0 0 -1 -1 -3 0 -3 -4 -32 -40 -38 -5 -3 -4 -14 -1
0 0 0 0 0 0 0 0 0 0 0 -2 -3 -1 0 0 0 -2 0 -3 -2 -14 -38 -1 0 0 -5 0 -3 0 -4 -3 -2 -1 -6 -34 -77 -47 -41 -8 -5 -9 -1
0 0 0 0 0 0 0 0 0 0 0 0 0 -1 0 0 -1 0 -5 -8 -16 -2 0 -9 0 0 -3 -2 -4 -1 0 0 0 -5 -32 -31 -50 -50 -20 -25 -28 -42 -4
0 0 0 0 0 0 0 0 0 0 0 0 0 -2 0 -15 -16 0 0 -8 0 -7 -10 -21 -25 -6 -1 -4 0 -1 -2 0 -8 -1 -42 -53 -34 -33 -44 -38 -34 -22 -4
0 0 0 0 0 0 0 0 0 0 0 0 0 0 0 0 -7 -8 -3 -1 -11 -1 -29 -2 -30 -34 -6 -2 0 -6 0 0 -10 0 0 0 -2 -1 -25 -55 -31 -16 -15
0 0 0 0 0 0 0 0 0 0 0 0 0 0 0 0 0 -3 0 0 -6 -2 -3 -2 -13 0 -2 -1 -1 0 0 0 0 0 0 -21 -8 -3 -4 -43 -61 -22 0
0 0 0 0 0 0 0 0 0 0 0 0 0 0 0 0 0 0 0 -2 -7 -1 0 -6 -1 0 0 0 0 0 0 0 0 0 0 0 -1 -2 -6 -33 -18 -11 -106
0 0 0 0 0 0 0 0 0 0 0 0 0 0 0 0 0 0 0 0 0 -2 0 -2 0 0 0 -1 0 0 0 0 0 0 0 0 0 0 0 -11 -14 -2 0
0 0 0 0 0 0 0 0 0 0 0 0 0 0 0 0 0 0 0 0 0 -8 0 0 0 0 0 0 0 -1 0 0 0 0 0 0 0 -2 0 -6 -1 -4 -1
0 0 0 0 0 0 0 0 0 0 0 0 0 0 0 0 0 0 0 -1 -11 -1 -1 -1 -3 0 0 0 0 0 0 0 0 0 0 -2 -2 -2 -1 0 -2 0 -1
0 0 0 0 0 0 0 0 0 0 0 0 0 0 0 0 0 0 0 0 0 -1 -1 -3 -10 0 0 0 0 0 0 0 0 -1 0 0 0 -7 0 -3 -6 -6 0
0 0 0 0 0 0 0 0 0 0 0 0 0 0 0 0 0 0 0 0 0 0 -1 -27 0 0 0 0 0 -8 0 0 0 0 -1 -1 -18 -9 0 -1 -5 -1 0
0 0 0 0 0 0 0 0 0 0 0 0 0 0 0 0 0 0 0 0 0 -6 -6 0 0 0 -1 0 0 -2 0 -1 0 -1 0 -6 0 -5 0 0 0 0 -1
Wind_Speed
nan nan 40 45 34 17 21 21 19 19 20 20 20 19 20 17 16 14 12 11 10 7 5 6 6 7 8 7 8 7 7 8 12 15 16 18 17 20 18 12 8 20 22
nan nan 38 43 nan 39 19 23 19 19 22 22 21 21 21 20 19 17 15 13 11 10 9 7 8 8 7 8 7 7 5 8 12 12 15 18 17 19 16 11 15 20 21
nan 28 32 nan 43 41 nan 32 21 19 22 20 21 22 22 22 20 18 17 14 12 11 11 10 8 7 9 11 8 7 5 6 9 8 6 10 16 15 17 19 23 21 23
27 28 32 44 44 44 42 nan nan 31 20 18 18 20 22 21 20 20 19 17 15 13 13 10 12 9 8 13 10 9 6 5 5 5 4 4 17 14 17 22 21 23 23
26 29 nan 44 47 45 41 nan nan nan 35 22 18 19 21 20 20 20 19 18 16 16 16 14 12 11 10 11 14 11 9 8 7 5 1 13 11 17 16 18 20 21 19
23 24 31 41 47 46 43 45 44 nan nan 36 30 18 21 22 21 20 19 19 19 19 16 14 12 9 12 12 12 12 11 8 8 6 5 18 9 23 18 17 19 19 23
25 25 28 39 41 44 45 47 47 45 42 39 38 28 20 21 21 22 21 21 21 22 18 15 13 12 12 9 12 13 11 9 5 4 9 19 13 16 17 17 17 20 25
nan 29 30 36 41 40 42 46 48 47 47 43 40 40 29 22 21 23 23 26 26 25 23 20 17 14 12 11 13 13 13 11 7 5 10 14 16 17 15 17 18 22 25
nan nan nan 33 34 nan nan 42 44 47 48 47 47 45 46 27 22 25 29 32 31 29 28 26 20 18 16 16 16 14 16 13 9 11 12 16 23 18 15 17 19 20 25
nan nan nan nan nan nan 33 nan 44 nan nan 47 47 47 46 32 23 23 27 29 34 32 31 31 26 22 20 19 19 18 18 18 13 11 22 21 23 18 14 17 20 18 24
nan nan nan nan nan nan nan nan nan nan nan 45 43 47 42 37 29 27 29 35 34 33 31 nan 30 25 24 21 24 27 23 19 17 19 20 29 25 19 15 15 19 19 22
nan nan nan nan nan nan nan nan nan nan nan nan nan 40 36 37 35 33 33 37 32 32 30 27 nan 28 27 22 26 nan 22 18 22 21 19 29 23 18 15 15 16 19 26
nan nan nan nan nan nan nan nan nan nan nan nan nan nan 44 42 37 36 33 32 39 33 30 29 28 nan 25 28 23 23 24 25 23 23 21 26 22 17 16 18 16 18 25
nan nan nan nan nan nan nan nan nan nan nan nan nan nan nan nan nan nan 45 44 43 42 34 32 32 32 31 31 28 22 22 20 23 23 26 21 19 17 15 19 18 17 27
nan nan nan nan nan nan nan nan nan nan nan nan nan nan nan nan nan nan nan nan 37 nan nan 33 34 32 35 35 33 nan nan 26 24 23 28 21 nan 16 16 20 20 18 25
nan nan nan nan nan nan nan nan nan nan nan nan nan nan nan nan nan nan nan nan nan 41 nan nan 32 33 36 36 35 nan 29 nan 27 24 nan nan nan 18 20 29 32 26 28
nan nan nan nan nan nan nan nan nan nan nan nan nan nan nan nan nan nan nan nan nan 43 nan nan nan 36 37 38 37 nan nan nan nan nan nan nan nan 19 22 32 35 24 11
nan nan nan nan nan nan nan nan nan nan nan nan nan nan nan nan nan nan nan nan nan nan nan nan nan nan 41 nan nan nan nan nan nan nan nan nan 21 21 23 35 47 50 34
nan nan nan nan nan nan nan nan nan nan nan nan nan nan nan nan nan nan nan nan nan nan nan nan nan nan nan nan nan nan nan nan nan nan nan nan nan 23 28 nan nan nan nan
nan nan nan nan nan nan nan nan nan nan nan nan nan nan nan nan nan nan nan nan nan nan nan nan nan nan nan nan nan nan nan nan nan nan nan nan nan nan nan nan nan nan nan
nan nan nan nan nan nan nan nan nan nan nan nan nan nan nan nan nan nan nan nan nan nan nan nan nan nan nan nan nan nan nan nan nan nan nan nan nan nan nan nan nan nan nan
nan nan nan nan nan nan nan nan nan nan nan nan nan nan nan nan nan nan nan nan nan nan nan nan nan nan nan nan nan nan nan nan nan nan nan nan nan nan nan nan nan nan nan
nan nan nan nan nan nan nan nan nan nan nan nan nan nan nan nan nan nan nan nan nan nan nan nan nan nan nan nan nan nan nan nan nan nan nan nan nan nan nan nan nan nan nan
nan nan nan nan nan nan nan nan nan nan nan nan nan nan nan nan nan nan nan nan nan nan nan nan nan nan nan nan nan nan nan nan nan nan nan nan nan nan nan nan nan nan nan
nan nan nan nan nan nan nan nan nan nan nan nan nan nan nan nan nan nan nan nan nan nan nan nan nan nan nan nan nan nan nan nan nan nan nan nan nan nan nan nan nan nan nan
nan nan nan nan nan nan nan nan nan nan nan nan nan nan nan nan nan nan nan nan nan nan nan nan nan nan nan nan nan nan nan nan nan nan nan nan nan nan nan nan nan nan nan
Wind_Direction
nan nan 179 182 186 255 241 239 229 232 228 228 231 234 236 246 259 266 270 272 263 239 242 274 309 312 306 316 309 289 258 254 242 246 240 252 266 269 266 264 261 270 276
nan nan 184 192 nan 203 227 239 226 231 237 230 228 231 233 239 242 248 255 254 253 244 229 241 294 304 297 292 293 282 268 254 247 253 251 252 254 273 273 255 248 268 276
nan 198 196 nan 203 213 nan 211 222 234 231 231 235 233 232 232 235 240 246 248 243 244 242 248 265 282 285 272 264 275 264 271 259 253 253 268 277 273 267 257 263 270 275
205 207 204 197 205 215 218 nan nan 211 226 244 238 236 239 234 235 236 239 241 240 238 241 253 256 267 259 265 269 262 262 269 279 262 266 264 286 287 270 265 272 277 279
211 211 nan 202 206 210 217 nan nan nan 212 215 240 250 256 245 235 234 236 235 236 231 232 237 240 260 266 256 252 250 254 261 279 295 238 260 263 288 287 279 275 280 283
212 213 211 208 210 209 215 217 216 nan nan 211 204 235 251 253 253 245 240 239 234 233 226 224 227 252 269 256 249 248 251 260 274 295 264 269 241 296 300 286 274 278 271
219 225 221 211 212 212 213 214 216 217 215 215 211 203 226 244 245 246 244 243 238 235 232 222 226 241 248 250 246 251 255 259 266 293 273 269 276 293 297 291 279 276 273
nan 229 230 220 216 217 213 213 215 217 218 217 217 214 213 224 235 242 250 244 238 232 229 225 225 228 246 240 238 241 253 264 275 241 268 270 278 285 297 293 279 274 271
nan nan nan 230 225 nan nan 214 212 217 219 218 219 218 213 219 232 240 243 245 241 234 229 229 232 228 231 238 237 235 248 265 248 267 273 266 273 286 294 288 283 284 284
nan nan nan nan nan nan 229 nan 216 nan nan 222 223 220 213 216 239 241 247 250 246 239 233 231 231 233 229 232 238 238 249 263 263 263 264 258 273 278 282 282 282 283 281
nan nan nan nan nan nan nan nan nan nan nan 225 228 224 227 230 229 244 250 247 244 240 235 nan 231 231 237 235 242 243 253 259 275 271 270 271 267 269 264 278 285 288 287
nan nan nan nan nan nan nan nan nan nan nan nan nan 236 243 236 230 238 246 246 247 244 237 237 nan 233 242 243 256 nan 256 262 268 264 267 271 267 266 256 253 283 283 286
nan nan nan nan nan nan nan nan nan nan nan nan nan nan 239 243 238 240 250 257 238 242 238 244 244 nan 245 243 237 245 255 253 257 259 261 257 247 262 248 241 253 278 288
nan nan nan nan nan nan nan nan nan nan nan nan nan nan nan nan nan nan 251 254 261 239 230 232 238 234 239 245 239 234 244 249 250 253 254 249 248 248 242 244 235 271 291
nan nan nan nan nan nan nan nan nan nan nan nan nan nan nan nan nan nan nan nan 260 nan nan 232 232 234 236 242 245 nan nan 241 250 248 255 250 nan 258 234 247 236 262 290
nan nan nan nan nan nan nan nan nan nan nan nan nan nan nan nan nan nan nan nan nan 254 nan nan 235 239 237 239 241 nan 241 nan 242 241 nan nan nan 263 259 258 252 256 253
nan nan nan nan nan nan nan nan nan nan nan nan nan nan nan nan nan nan nan nan nan 255 nan nan nan 241 242 240 238 nan nan nan nan nan nan nan nan 267 265 259 248 231 270
nan nan nan nan nan nan nan nan nan nan nan nan nan nan nan nan nan nan nan nan nan nan nan nan nan nan 243 nan nan nan nan nan nan nan nan nan 249 255 255 259 253 243 267
nan nan nan nan nan nan nan nan nan nan nan nan nan nan nan nan nan nan nan nan nan nan nan nan nan nan nan nan nan nan nan nan nan nan nan nan nan 247 256 nan nan nan nan
nan nan nan nan nan nan nan nan nan nan nan nan nan nan nan nan nan nan nan nan nan nan nan nan nan nan nan nan nan nan nan nan nan nan nan nan nan nan nan nan nan nan nan
nan nan nan nan nan nan nan nan nan nan nan nan nan nan nan nan nan nan nan nan nan nan nan nan nan nan nan nan nan nan nan nan nan nan nan nan nan nan nan nan nan nan nan
nan nan nan nan nan nan nan nan nan nan nan nan nan nan nan nan nan nan nan nan nan nan nan nan nan nan nan nan nan nan nan nan nan nan nan nan nan nan nan nan nan nan nan
nan nan nan nan nan nan nan nan nan nan nan nan nan nan nan nan nan nan nan nan nan nan nan nan nan nan nan nan nan nan nan nan nan nan nan nan nan nan nan nan nan nan nan
nan nan nan nan nan nan nan nan nan nan nan nan nan nan nan nan nan nan nan nan nan nan nan nan nan nan nan nan nan nan nan nan nan nan nan nan nan nan nan nan nan nan nan
nan nan nan nan nan nan nan nan nan nan nan nan nan nan nan nan nan nan nan nan nan nan nan nan nan nan nan nan nan nan nan nan nan nan nan nan nan nan nan nan nan nan nan
nan nan nan nan nan nan nan nan nan nan nan nan nan nan nan nan nan nan nan nan nan nan nan nan nan nan nan nan nan nan nan nan nan nan nan nan nan nan nan nan nan nan nan